Pardubice, Czech Republic

1:58 PM CEST on September 26, 2016 (GMT +0200)
Pardubice

Weather History for LKPD - March, 2013

Change the Weather History Date:

Sunday, March 24, 2013

  Actual Average Record
Temperature  
Mean Temperature 22 °F -  
Max Temperature 33 °F - - ()
Min Temperature 12 °F - - ()
Degree Days  
Heating Degree Days 42    
Moisture  
Dew Point 3 °F    
Average Humidity 46    
Maximum Humidity 62    
Minimum Humidity 21    
Precipitation  
Precipitation 0.00 in - - ()
Sea Level Pressure  
Sea Level Pressure 30.14 in    
Wind  
Wind Speed 7 mph ()    
Max Wind Speed 18 mph    
Max Gust Speed -    
T = Trace of Precipitation, MM = Missing Value Source: Averaged Metar Reports

Daily Weather History Graph

Daily Weather History Graph

Search for Another Location

Airport or City:

Trip Planner

Search our weather history database for the weather conditions in past years. The results will help you decide how hot, cold, wet, or windy it might be!

Date:

Astronomy

Mar. 24, 2013 Rise Set
Actual Time 5:51 AM CET 6:16 PM CET
Civil Twilight 5:18 AM CET 6:48 PM CET
Nautical Twilight 4:40 AM CET 7:27 PM CET
Astronomical Twilight 4:00 AM CET 8:07 PM CET
Moon 3:12 PM CET (3/24) 4:07 AM CET (3/24)
Length of Visible Light 13h 30m
Length of Day
12h 25m
Waxing Gibbous, 90% of the Moon is Illuminated
Mar 24
Waxing Gibbous
Mar 27
Full
Apr 3
Last Quarter
Apr 10
New
Apr 18
First Quarter

Hourly Weather History & Observations

Time (CET) Temp. Windchill Dew Point Humidity Pressure Visibility Wind Dir Wind Speed Gust Speed Precip Events Conditions
12:00 AM 15.8 °F 10.2 °F 3.2 °F 58% 30.21 in - NE 3.5 mph - N/A   Clear
1:00 AM 14.0 °F 6.5 °F 3.2 °F 62% 30.21 in - ENE 4.6 mph - N/A   Clear
2:00 AM 14.0 °F 3.9 °F 3.2 °F 62% 30.18 in - East 6.9 mph - N/A   Clear
3:00 AM 14.0 °F 6.5 °F 1.4 °F 57% 30.18 in - ENE 4.6 mph - N/A   Clear
4:00 AM 12.2 °F 6.1 °F 1.4 °F 62% 30.18 in - ENE 3.5 mph - N/A   Clear
5:00 AM 12.2 °F 6.1 °F 1.4 °F 62% 30.18 in - ENE 3.5 mph - N/A   Clear
6:00 AM 12.2 °F 6.1 °F 1.4 °F 62% 30.18 in - ENE 3.5 mph - N/A   Clear
7:00 AM 15.8 °F 10.2 °F 1.4 °F 53% 30.18 in - ENE 3.5 mph - N/A   Clear
8:00 AM 17.6 °F 8.2 °F 1.4 °F 49% 30.18 in - East 6.9 mph - N/A   Clear
9:00 AM 21.2 °F 8.3 °F -0.4 °F 39% 30.18 in - ESE 13.8 mph - N/A   Clear
10:00 AM 23.0 °F 11.1 °F -0.4 °F 36% 30.18 in - ESE 12.7 mph - N/A   Clear
11:00 AM 26.6 °F 14.7 °F -4.0 °F 26% 30.15 in - East 15.0 mph - N/A   Clear
12:00 PM 30.2 °F 19.8 °F -4.0 °F 23% 30.15 in - East 13.8 mph - N/A   Clear
1:00 PM 32.0 °F 20.8 °F -4.0 °F 21% 30.12 in - ESE 17.3 mph - N/A   Clear
2:00 PM 33.8 °F 22.8 °F 1.4 °F 25% 30.09 in - ESE 18.4 mph - N/A   Clear
3:00 PM 33.8 °F 22.8 °F -2.2 °F 22% 30.09 in - East 18.4 mph - N/A   Clear
4:00 PM 32.0 °F 22.5 °F 5.0 °F 32% 30.09 in - East 12.7 mph - N/A   Clear
5:00 PM 30.2 °F 20.8 °F 6.8 °F 37% 30.09 in - ENE 11.5 mph - N/A   Clear
6:00 PM 28.4 °F 18.0 °F 6.8 °F 40% 30.09 in - ENE 12.7 mph - N/A   Clear
7:00 PM 26.6 °F 15.7 °F 8.6 °F 47% 30.09 in - East 12.7 mph - N/A   Clear
8:00 PM 26.6 °F 18.2 °F 8.6 °F 47% 30.12 in - ENE 8.1 mph - N/A   Clear
9:00 PM 24.8 °F 16.9 °F 10.4 °F 54% 30.12 in - ENE 6.9 mph - N/A   Clear
10:00 PM 23.0 °F 14.7 °F 10.4 °F 59% 30.12 in - ENE 6.9 mph - N/A   Clear
11:00 PM 23.0 °F 14.7 °F 10.4 °F 59% 30.09 in - ENE 6.9 mph - N/A   Clear
11:54 PM 23.0 °F 13.1 °F 10.4 °F 59% 30.09 in - East 9.2 mph - N/A   Clear